Location: Chmeln�
(49.6483°N, 14.9871°E)
Time: 05:54:49
(UTC+00:00)

Cosmos 990 Rocket - Pass Details

Date: 18 September 2020
Orbit: 746 x 769 km, 74.0° (Epoch: 27 October)

Event Time Altitude Azimuth Distance (km) Brightness Sun altitude
Rises 17:58:01 0° 204° (SSW) 3,179 7.4 -9.1°
Reaches altitude 10° 18:00:22 10° 206° (SSW) 2,259 6.6 -9.5°
Maximum altitude 18:05:29 81° 293° (WNW) 762 4.1 -10.3°
Drops below altitude 10° 18:10:40 10° 22° (NNE) 2,278 6.4 -11.1°
Sets 18:13:02 0° 24° (NNE) 3,209 7.1 -11.5°
